Year,Month,Day,Hour,Minute,Value (Times are PST for windgust in km/hr)
2010,05,18,00,00,4.80
2010,05,18,00,01,4.80
2010,05,18,00,02,4.80
2010,05,18,00,03,4.80
2010,05,18,00,04,1.60
2010,05,18,00,06,1.60
2010,05,18,00,07,1.60
2010,05,18,00,08,1.60
2010,05,18,00,15,1.60
2010,05,18,00,16,1.60
2010,05,18,00,17,3.20
2010,05,18,00,18,3.20
2010,05,18,00,19,3.20
2010,05,18,00,20,3.20
2010,05,18,00,21,3.20
2010,05,18,00,22,1.60
2010,05,18,00,23,1.60
2010,05,18,00,24,1.60
2010,05,18,00,26,3.20
2010,05,18,00,27,1.60
2010,05,18,00,28,1.60
2010,05,18,00,29,3.20
2010,05,18,00,30,3.20
2010,05,18,00,31,4.80
2010,05,18,00,32,3.20
2010,05,18,00,33,4.80
2010,05,18,00,34,6.40
2010,05,18,00,35,3.20
2010,05,18,00,36,3.20
2010,05,18,00,37,3.20
2010,05,18,00,38,3.20
2010,05,18,00,39,3.20
2010,05,18,00,40,3.20
2010,05,18,00,41,3.20
2010,05,18,00,42,4.80
2010,05,18,00,43,3.20
2010,05,18,00,44,4.80
2010,05,18,00,45,4.80
2010,05,18,00,46,4.80
2010,05,18,00,47,4.80
2010,05,18,00,48,4.80
2010,05,18,00,49,4.80
2010,05,18,00,50,4.80
2010,05,18,00,51,4.80
2010,05,18,00,52,4.80
2010,05,18,00,53,4.80
2010,05,18,00,54,4.80
2010,05,18,00,55,6.40
2010,05,18,00,56,6.40
2010,05,18,00,57,4.80
2010,05,18,00,58,4.80
2010,05,18,00,59,4.80
2010,05,18,01,00,4.80
2010,05,18,01,01,4.80
2010,05,18,01,02,4.80
2010,05,18,01,03,4.80
2010,05,18,01,04,4.80
2010,05,18,01,05,4.80
2010,05,18,01,06,4.80
2010,05,18,01,07,3.20
2010,05,18,01,08,1.60
2010,05,18,01,10,3.20
2010,05,18,01,11,1.60
2010,05,18,01,12,3.20
2010,05,18,01,13,3.20
2010,05,18,01,14,3.20
2010,05,18,01,15,4.80
2010,05,18,01,16,3.20
2010,05,18,01,17,4.80
2010,05,18,01,18,4.80
2010,05,18,01,19,3.20
2010,05,18,01,20,3.20
2010,05,18,01,21,1.60
2010,05,18,01,23,1.60
2010,05,18,01,25,1.60
2010,05,18,01,26,1.60
2010,05,18,01,27,1.60
2010,05,18,01,28,1.60
2010,05,18,01,30,1.60
2010,05,18,01,31,3.20
2010,05,18,01,32,3.20
2010,05,18,01,33,3.20
2010,05,18,01,34,3.20
2010,05,18,01,35,3.20
2010,05,18,01,36,1.60
2010,05,18,01,37,1.60
2010,05,18,01,38,1.60
2010,05,18,01,40,3.20
2010,05,18,01,41,3.20
2010,05,18,01,42,3.20
2010,05,18,01,43,1.60
2010,05,18,01,44,1.60
2010,05,18,01,48,1.60
2010,05,18,01,49,3.20
2010,05,18,01,50,3.20
2010,05,18,01,51,3.20
2010,05,18,01,52,3.20
2010,05,18,01,53,3.20
2010,05,18,01,54,3.20
2010,05,18,01,55,3.20
2010,05,18,01,56,3.20
2010,05,18,01,57,3.20
2010,05,18,01,58,4.80
2010,05,18,01,59,4.80
2010,05,18,02,00,4.80
2010,05,18,02,01,4.80
2010,05,18,02,02,4.80
2010,05,18,02,03,4.80
2010,05,18,02,04,4.80
2010,05,18,02,05,4.80
2010,05,18,02,06,4.80
2010,05,18,02,07,4.80
2010,05,18,02,08,6.40
2010,05,18,02,09,4.80
2010,05,18,02,10,4.80
2010,05,18,02,11,6.40
2010,05,18,02,12,6.40
2010,05,18,02,13,4.80
2010,05,18,02,14,4.80
2010,05,18,02,15,4.80
2010,05,18,02,16,4.80
2010,05,18,02,17,6.40
2010,05,18,02,18,4.80
2010,05,18,02,19,4.80
2010,05,18,02,20,4.80
2010,05,18,02,21,3.20
2010,05,18,02,22,4.80
2010,05,18,02,23,3.20
2010,05,18,02,24,4.80
2010,05,18,02,25,6.40
2010,05,18,02,26,4.80
2010,05,18,02,27,4.80
2010,05,18,02,28,4.80
2010,05,18,02,29,4.80
2010,05,18,02,30,3.20
2010,05,18,02,31,4.80
2010,05,18,02,32,3.20
2010,05,18,02,33,3.20
2010,05,18,02,34,3.20
2010,05,18,02,35,4.80
2010,05,18,02,36,3.20
2010,05,18,02,37,3.20
2010,05,18,02,38,3.20
2010,05,18,02,39,3.20
2010,05,18,02,40,3.20
2010,05,18,02,41,3.20
2010,05,18,02,42,3.20
2010,05,18,02,43,3.20
2010,05,18,02,44,1.60
2010,05,18,02,45,3.20
2010,05,18,02,46,1.60
2010,05,18,02,47,1.60
2010,05,18,02,48,3.20
2010,05,18,02,49,3.20
2010,05,18,02,50,4.80
2010,05,18,02,51,4.80
2010,05,18,02,52,4.80
2010,05,18,02,53,4.80
2010,05,18,02,54,3.20
2010,05,18,02,55,3.20
2010,05,18,02,56,3.20
2010,05,18,02,57,3.20
2010,05,18,02,58,1.60
2010,05,18,02,59,3.20
2010,05,18,03,00,1.60
2010,05,18,03,01,1.60
2010,05,18,03,02,1.60
2010,05,18,03,03,1.60
2010,05,18,03,04,3.20
2010,05,18,03,05,4.80
2010,05,18,03,06,4.80
2010,05,18,03,07,4.80
2010,05,18,03,08,4.80
2010,05,18,03,09,4.80
2010,05,18,03,10,4.80
2010,05,18,03,11,4.80
2010,05,18,03,12,4.80
2010,05,18,03,13,4.80
2010,05,18,03,14,6.40
2010,05,18,03,15,4.80
2010,05,18,03,16,3.20
2010,05,18,03,17,3.20
2010,05,18,03,18,1.60
2010,05,18,03,19,1.60
2010,05,18,03,20,1.60
2010,05,18,03,21,1.60
2010,05,18,03,22,1.60
2010,05,18,03,23,1.60
2010,05,18,03,24,1.60
2010,05,18,03,25,1.60
2010,05,18,03,26,1.60
2010,05,18,03,27,1.60
2010,05,18,13,21,22.50
2010,05,18,13,22,24.20
2010,05,18,13,23,20.90
2010,05,18,13,24,22.50
2010,05,18,13,25,27.40
2010,05,18,13,26,29.00
2010,05,18,13,27,29.00
2010,05,18,13,28,25.70
2010,05,18,13,29,24.20
2010,05,18,13,30,19.30
2010,05,18,13,31,27.40
2010,05,18,13,32,20.90
2010,05,18,13,33,20.90
2010,05,18,13,34,19.30
2010,05,18,13,35,25.70
2010,05,18,13,36,25.70
2010,05,18,13,37,25.70
2010,05,18,13,38,24.20
2010,05,18,13,39,20.90
2010,05,18,13,40,25.70
2010,05,18,13,41,20.90
2010,05,18,13,42,27.40
2010,05,18,13,43,22.50
2010,05,18,13,44,25.70
2010,05,18,13,45,27.40
2010,05,18,13,46,27.40
2010,05,18,13,47,30.60
2010,05,18,13,48,37.00
2010,05,18,13,49,35.40
2010,05,18,13,50,33.80
2010,05,18,13,51,25.70
2010,05,18,13,52,27.40
2010,05,18,13,53,29.00
2010,05,18,13,54,24.20
2010,05,18,13,55,24.20
2010,05,18,13,56,22.50
2010,05,18,13,57,25.70
2010,05,18,13,58,22.50
2010,05,18,13,59,24.20
2010,05,18,14,00,27.40
2010,05,18,14,01,24.20
2010,05,18,14,02,27.40
2010,05,18,14,03,27.40
2010,05,18,14,04,25.70
2010,05,18,14,05,24.20
2010,05,18,14,06,29.00
2010,05,18,14,07,29.00
2010,05,18,14,08,25.70
2010,05,18,14,09,30.60
2010,05,18,14,10,22.50
2010,05,18,14,11,16.10
2010,05,18,14,12,24.20
2010,05,18,14,13,22.50
2010,05,18,14,14,22.50
2010,05,18,14,15,22.50
2010,05,18,14,16,22.50
2010,05,18,14,17,24.20
2010,05,18,14,18,22.50
2010,05,18,14,19,25.70
2010,05,18,14,20,17.70
2010,05,18,14,21,20.90
2010,05,18,14,22,20.90
2010,05,18,14,23,25.70
2010,05,18,14,24,24.20
2010,05,18,14,25,24.20
2010,05,18,14,26,32.20
2010,05,18,14,27,27.40
2010,05,18,14,28,24.20
2010,05,18,14,29,20.90
2010,05,18,14,30,17.70
2010,05,18,14,31,27.40
2010,05,18,14,32,32.20
2010,05,18,14,33,22.50
2010,05,18,14,34,19.30
2010,05,18,14,35,20.90
2010,05,18,14,36,19.30
2010,05,18,14,37,32.20
2010,05,18,14,38,22.50
2010,05,18,14,39,22.50
2010,05,18,14,40,16.10
2010,05,18,14,41,24.20
2010,05,18,14,42,25.70
2010,05,18,14,43,25.70
2010,05,18,14,44,25.70
2010,05,18,14,45,22.50
2010,05,18,14,46,25.70
2010,05,18,14,47,22.50
2010,05,18,14,48,12.90
2010,05,18,14,49,20.90
2010,05,18,14,50,16.10
2010,05,18,14,51,16.10
2010,05,18,14,52,12.90
2010,05,18,14,53,16.10
2010,05,18,14,54,17.70
2010,05,18,14,55,17.70
2010,05,18,14,56,17.70
2010,05,18,14,57,19.30
2010,05,18,14,58,16.10
2010,05,18,14,59,16.10
2010,05,18,15,00,11.30
2010,05,18,15,01,20.90
2010,05,18,15,02,17.70
2010,05,18,15,03,19.30
2010,05,18,15,04,25.70
2010,05,18,15,05,37.00
2010,05,18,15,06,33.80
2010,05,18,15,07,37.00
2010,05,18,15,08,33.80
2010,05,18,15,09,29.00
2010,05,18,15,10,30.60
2010,05,18,15,11,27.40
2010,05,18,15,12,24.20
2010,05,18,15,13,25.70
2010,05,18,15,14,40.20
2010,05,18,15,15,27.40
2010,05,18,15,16,27.40
2010,05,18,15,17,30.60
2010,05,18,15,18,24.20
2010,05,18,15,19,25.70
2010,05,18,15,20,24.20
2010,05,18,15,21,24.20
2010,05,18,15,22,29.00
2010,05,18,15,23,32.20
2010,05,18,15,24,27.40
2010,05,18,15,25,22.50
2010,05,18,15,26,25.70
2010,05,18,15,27,27.40
2010,05,18,15,28,30.60
2010,05,18,15,29,22.50
2010,05,18,15,30,24.20
2010,05,18,15,31,27.40
2010,05,18,15,32,22.50
2010,05,18,15,33,19.30
2010,05,18,15,34,20.90
2010,05,18,15,35,20.90
2010,05,18,15,36,20.90
2010,05,18,15,37,17.70
2010,05,18,15,38,14.50
2010,05,18,15,39,16.10
2010,05,18,15,40,17.70
2010,05,18,15,41,20.90
2010,05,18,15,42,19.30
2010,05,18,15,43,22.50
2010,05,18,15,44,24.20
2010,05,18,15,45,19.30
2010,05,18,15,46,22.50
2010,05,18,15,47,20.90
2010,05,18,15,48,19.30
2010,05,18,15,49,22.50
2010,05,18,15,50,22.50
2010,05,18,15,51,24.20
2010,05,18,15,52,19.30
2010,05,18,15,53,22.50
2010,05,18,15,54,19.30
2010,05,18,15,55,20.90
2010,05,18,15,56,25.70
2010,05,18,15,57,25.70
2010,05,18,15,58,20.90
2010,05,18,15,59,17.70
2010,05,18,16,00,20.90
2010,05,18,16,01,24.20
2010,05,18,16,02,24.20
2010,05,18,16,03,20.90
2010,05,18,16,04,17.70
2010,05,18,16,05,16.10
2010,05,18,16,06,25.70
2010,05,18,16,07,27.40
2010,05,18,16,08,20.90
2010,05,18,16,09,19.30
2010,05,18,16,10,24.20
2010,05,18,16,11,27.40
2010,05,18,16,12,20.90
2010,05,18,16,13,17.70
2010,05,18,16,14,20.90
2010,05,18,16,15,17.70
2010,05,18,16,16,16.10
2010,05,18,16,17,25.70
2010,05,18,16,18,30.60
2010,05,18,16,19,25.70
2010,05,18,16,20,24.20
2010,05,18,16,21,30.60
2010,05,18,16,22,24.20
2010,05,18,16,23,24.20
2010,05,18,16,24,22.50
2010,05,18,16,25,20.90
2010,05,18,16,26,25.70
2010,05,18,16,27,19.30
2010,05,18,16,28,22.50
2010,05,18,16,29,17.70
2010,05,18,16,30,27.40
2010,05,18,16,31,24.20
2010,05,18,16,32,25.70
2010,05,18,16,33,29.00
2010,05,18,16,34,25.70
2010,05,18,16,35,17.70
2010,05,18,16,36,17.70
2010,05,18,16,37,16.10
2010,05,18,16,38,19.30
2010,05,18,16,39,19.30
2010,05,18,16,40,24.20
2010,05,18,16,41,19.30
2010,05,18,16,42,22.50
2010,05,18,16,43,17.70
2010,05,18,16,44,16.10
2010,05,18,16,45,14.50
2010,05,18,16,46,20.90
2010,05,18,16,47,25.70
2010,05,18,16,48,17.70
2010,05,18,16,49,16.10
2010,05,18,16,50,24.20
2010,05,18,16,51,22.50
2010,05,18,16,52,20.90
2010,05,18,16,53,25.70
2010,05,18,16,54,24.20
2010,05,18,16,55,17.70
2010,05,18,16,56,14.50
2010,05,18,16,57,17.70
2010,05,18,16,58,11.30
2010,05,18,16,59,11.30
2010,05,18,17,00,24.20
2010,05,18,17,01,20.90
2010,05,18,17,02,17.70
2010,05,18,17,03,14.50
2010,05,18,17,04,17.70
2010,05,18,17,05,8.10
2010,05,18,17,06,9.60
2010,05,18,17,07,16.10
2010,05,18,17,08,17.70
2010,05,18,17,09,16.10
2010,05,18,17,10,19.30
2010,05,18,17,11,17.70
2010,05,18,17,12,11.30
2010,05,18,17,13,9.60
2010,05,18,17,14,12.90
2010,05,18,17,15,12.90
2010,05,18,17,16,17.70
2010,05,18,17,17,16.10
2010,05,18,17,18,16.10
2010,05,18,17,19,16.10
2010,05,18,17,20,16.10
2010,05,18,17,21,14.50
2010,05,18,17,22,11.30
2010,05,18,17,23,14.50
2010,05,18,17,24,11.30
2010,05,18,17,25,11.30
2010,05,18,17,26,16.10
2010,05,18,17,27,9.60
2010,05,18,17,28,8.10
2010,05,18,17,29,8.10
2010,05,18,17,30,9.60
2010,05,18,17,31,11.30
2010,05,18,17,32,8.10
2010,05,18,17,33,9.60
2010,05,18,17,34,8.10
2010,05,18,17,35,11.30
2010,05,18,17,36,6.40
2010,05,18,17,37,9.60
2010,05,18,17,38,11.30
2010,05,18,17,39,19.30
2010,05,18,17,40,17.70
2010,05,18,17,41,14.50
2010,05,18,17,42,11.30
2010,05,18,17,43,14.50
2010,05,18,17,44,12.90
2010,05,18,17,45,11.30
2010,05,18,17,46,9.60
2010,05,18,17,47,9.60
2010,05,18,17,48,11.30
2010,05,18,17,49,9.60
2010,05,18,17,50,16.10
2010,05,18,17,51,14.50
2010,05,18,17,52,8.10
2010,05,18,17,53,9.60
2010,05,18,17,54,17.70
2010,05,18,17,55,11.30
2010,05,18,17,56,9.60
2010,05,18,17,57,8.10
2010,05,18,17,58,11.30
2010,05,18,17,59,8.10
2010,05,18,18,00,14.50
2010,05,18,18,01,8.10
2010,05,18,18,02,9.60
2010,05,18,18,03,9.60
2010,05,18,18,04,9.60
2010,05,18,18,05,8.10
2010,05,18,18,06,4.80
2010,05,18,18,07,6.40
2010,05,18,18,08,9.60
2010,05,18,18,09,9.60
2010,05,18,18,10,8.10
2010,05,18,18,11,9.60
2010,05,18,18,12,11.30
2010,05,18,18,13,11.30
2010,05,18,18,14,16.10
2010,05,18,18,15,22.50
2010,05,18,18,16,17.70
2010,05,18,18,17,9.60
2010,05,18,18,18,20.90
2010,05,18,18,19,12.90
2010,05,18,18,20,11.30
2010,05,18,18,21,17.70
2010,05,18,18,22,19.30
2010,05,18,18,23,11.30
2010,05,18,18,24,19.30
2010,05,18,18,25,8.10
2010,05,18,18,26,9.60
2010,05,18,18,27,16.10
2010,05,18,18,28,12.90
2010,05,18,18,29,19.30
2010,05,18,18,30,12.90
2010,05,18,18,31,14.50
2010,05,18,18,32,14.50
2010,05,18,18,33,19.30
2010,05,18,18,34,22.50
2010,05,18,18,35,17.70
2010,05,18,18,36,16.10
2010,05,18,18,37,17.70
2010,05,18,18,38,22.50
2010,05,18,18,39,22.50
2010,05,18,18,40,22.50
2010,05,18,18,41,16.10
2010,05,18,18,42,14.50
2010,05,18,18,43,22.50
2010,05,18,18,44,20.90
2010,05,18,18,45,22.50
2010,05,18,18,46,17.70
2010,05,18,18,47,14.50
2010,05,18,18,48,16.10
2010,05,18,18,49,11.30
2010,05,18,18,50,24.20
2010,05,18,18,51,17.70
2010,05,18,18,52,22.50
2010,05,18,18,53,24.20
2010,05,18,18,54,19.30
2010,05,18,18,55,16.10
2010,05,18,18,56,16.10
2010,05,18,18,57,9.60
2010,05,18,18,58,16.10
2010,05,18,18,59,14.50
2010,05,18,19,00,19.30
2010,05,18,19,01,16.10
2010,05,18,19,02,19.30
2010,05,18,19,03,16.10
2010,05,18,19,04,9.60
2010,05,18,19,05,17.70
2010,05,18,19,06,19.30
2010,05,18,19,07,20.90
2010,05,18,19,08,20.90
2010,05,18,19,09,16.10
2010,05,18,19,10,16.10
2010,05,18,19,11,9.60
2010,05,18,19,12,8.10
2010,05,18,19,13,9.60
2010,05,18,19,14,16.10
2010,05,18,19,15,17.70
2010,05,18,19,16,16.10
2010,05,18,19,17,11.30
2010,05,18,19,18,20.90
2010,05,18,19,19,19.30
2010,05,18,19,20,12.90
2010,05,18,19,21,11.30
2010,05,18,19,22,9.60
2010,05,18,19,23,9.60
2010,05,18,19,24,9.60
2010,05,18,19,25,6.40
2010,05,18,19,26,6.40
2010,05,18,19,27,14.50
2010,05,18,19,28,17.70
2010,05,18,19,29,22.50
2010,05,18,19,30,14.50
2010,05,18,19,31,14.50
2010,05,18,19,32,9.60
2010,05,18,19,33,6.40
2010,05,18,19,34,11.30
2010,05,18,19,35,9.60
2010,05,18,19,36,8.10
2010,05,18,19,37,4.80
2010,05,18,19,38,4.80
2010,05,18,19,39,6.40
2010,05,18,19,40,4.80
2010,05,18,19,41,6.40
2010,05,18,19,42,4.80
2010,05,18,19,43,8.10
2010,05,18,19,44,8.10
2010,05,18,19,45,6.40
2010,05,18,19,46,6.40
2010,05,18,19,47,9.60
2010,05,18,19,48,8.10
2010,05,18,19,49,14.50
2010,05,18,19,50,19.30
2010,05,18,19,51,14.50
2010,05,18,19,52,8.10
2010,05,18,19,53,8.10
2010,05,18,19,54,11.30
2010,05,18,19,55,8.10
2010,05,18,19,56,11.30
2010,05,18,19,57,6.40
2010,05,18,19,58,8.10
2010,05,18,19,59,6.40
2010,05,18,20,00,3.20
2010,05,18,20,01,8.10
2010,05,18,20,02,3.20
2010,05,18,20,03,9.60
2010,05,18,20,04,11.30
2010,05,18,20,05,14.50
2010,05,18,20,06,4.80
2010,05,18,20,07,9.60
2010,05,18,20,08,11.30
2010,05,18,20,09,16.10
2010,05,18,20,10,8.10
2010,05,18,20,11,6.40
2010,05,18,20,12,8.10
2010,05,18,20,13,8.10
2010,05,18,20,14,9.60
2010,05,18,20,15,17.70
2010,05,18,20,16,8.10
2010,05,18,20,17,14.50
2010,05,18,20,18,8.10
2010,05,18,20,19,11.30
2010,05,18,20,20,17.70
2010,05,18,20,21,19.30
2010,05,18,20,22,17.70
2010,05,18,20,23,17.70
2010,05,18,20,24,16.10
2010,05,18,20,25,16.10
2010,05,18,20,26,11.30
2010,05,18,20,27,9.60
2010,05,18,20,28,9.60
2010,05,18,20,29,4.80
2010,05,18,20,30,6.40
2010,05,18,20,31,16.10
2010,05,18,20,32,9.60
2010,05,18,20,33,19.30
2010,05,18,20,34,17.70
2010,05,18,20,35,16.10
2010,05,18,20,36,16.10
2010,05,18,20,37,11.30
2010,05,18,20,38,12.90
2010,05,18,20,39,11.30
2010,05,18,20,40,9.60
2010,05,18,20,41,17.70
2010,05,18,20,42,17.70
2010,05,18,20,43,14.50
2010,05,18,20,44,11.30
2010,05,18,20,45,9.60
2010,05,18,20,46,11.30
2010,05,18,20,47,11.30
2010,05,18,20,48,14.50
2010,05,18,20,49,14.50
2010,05,18,20,50,17.70
2010,05,18,20,51,9.60
2010,05,18,20,52,9.60
2010,05,18,20,53,6.40
2010,05,18,20,54,6.40
2010,05,18,20,55,3.20
2010,05,18,20,56,9.60
2010,05,18,20,57,9.60
2010,05,18,20,58,11.30
2010,05,18,20,59,17.70
2010,05,18,21,00,9.60
2010,05,18,21,01,8.10
2010,05,18,21,02,12.90
2010,05,18,21,03,16.10
2010,05,18,21,04,17.70
2010,05,18,21,05,16.10
2010,05,18,21,06,9.60
2010,05,18,21,07,8.10
2010,05,18,21,08,14.50
2010,05,18,21,09,17.70
2010,05,18,21,10,12.90
2010,05,18,21,11,9.60
2010,05,18,21,12,8.10
2010,05,18,21,13,16.10
2010,05,18,21,14,12.90
2010,05,18,21,15,16.10
2010,05,18,21,16,11.30
2010,05,18,21,17,12.90
2010,05,18,21,18,11.30
2010,05,18,21,19,17.70
2010,05,18,21,20,14.50
2010,05,18,21,21,9.60
2010,05,18,21,22,9.60
2010,05,18,21,23,9.60
2010,05,18,21,24,9.60
2010,05,18,21,25,8.10
2010,05,18,21,26,6.40
2010,05,18,21,27,3.20
2010,05,18,21,28,8.10
2010,05,18,21,29,6.40
2010,05,18,21,30,9.60
2010,05,18,21,31,6.40
2010,05,18,21,32,6.40
2010,05,18,21,33,8.10
2010,05,18,21,34,6.40
2010,05,18,21,35,8.10
2010,05,18,21,36,6.40
2010,05,18,21,37,6.40
2010,05,18,21,38,6.40
2010,05,18,21,39,8.10
2010,05,18,21,40,9.60
2010,05,18,21,41,8.10
2010,05,18,21,42,8.10
2010,05,18,21,43,16.10
2010,05,18,21,44,16.10
2010,05,18,21,45,14.50
2010,05,18,21,46,8.10
2010,05,18,21,47,9.60
2010,05,18,21,48,11.30
2010,05,18,21,49,9.60
2010,05,18,21,50,11.30
2010,05,18,21,51,9.60
2010,05,18,21,52,9.60
2010,05,18,21,53,9.60
2010,05,18,21,54,6.40
2010,05,18,21,55,6.40
2010,05,18,21,56,6.40
2010,05,18,21,57,8.10
2010,05,18,21,58,9.60
2010,05,18,21,59,11.30
2010,05,18,22,00,11.30
2010,05,18,22,01,12.90
2010,05,18,22,02,9.60
2010,05,18,22,03,11.30
2010,05,18,22,04,11.30
2010,05,18,22,05,8.10
2010,05,18,22,06,9.60
2010,05,18,22,07,14.50
2010,05,18,22,08,9.60
2010,05,18,22,09,9.60
2010,05,18,22,10,9.60
2010,05,18,22,11,6.40
2010,05,18,22,12,6.40
2010,05,18,22,13,8.10
2010,05,18,22,14,6.40
2010,05,18,22,15,4.80
2010,05,18,22,16,6.40
2010,05,18,22,17,8.10
2010,05,18,22,18,8.10
2010,05,18,22,19,9.60
2010,05,18,22,20,9.60
2010,05,18,22,21,11.30
2010,05,18,22,22,14.50
2010,05,18,22,23,17.70
2010,05,18,22,24,16.10
2010,05,18,22,25,16.10
2010,05,18,22,26,9.60
2010,05,18,22,27,11.30
2010,05,18,22,28,11.30
2010,05,18,22,29,8.10
2010,05,18,22,30,11.30
2010,05,18,22,31,22.50
2010,05,18,22,32,17.70
2010,05,18,22,33,16.10
2010,05,18,22,34,20.90
2010,05,18,22,35,20.90
2010,05,18,22,36,14.50
2010,05,18,22,37,17.70
2010,05,18,22,38,19.30
2010,05,18,22,39,22.50
2010,05,18,22,40,17.70
2010,05,18,22,41,22.50
2010,05,18,22,42,19.30
2010,05,18,22,43,22.50
2010,05,18,22,44,25.70
2010,05,18,22,45,20.90
2010,05,18,22,46,24.20
2010,05,18,22,47,20.90
2010,05,18,22,48,19.30
2010,05,18,22,49,22.50
2010,05,18,22,50,25.70
2010,05,18,22,51,20.90
2010,05,18,22,52,30.60
2010,05,18,22,53,17.70
2010,05,18,22,54,17.70
2010,05,18,22,55,20.90
2010,05,18,22,56,20.90
2010,05,18,22,57,24.20
2010,05,18,22,58,19.30
2010,05,18,22,59,22.50
2010,05,18,23,00,22.50
2010,05,18,23,01,19.30
2010,05,18,23,02,17.70
2010,05,18,23,03,16.10
2010,05,18,23,04,11.30
2010,05,18,23,05,11.30
2010,05,18,23,06,14.50
2010,05,18,23,07,16.10
2010,05,18,23,08,22.50
2010,05,18,23,09,20.90
2010,05,18,23,10,16.10
2010,05,18,23,11,11.30
2010,05,18,23,12,11.30
2010,05,18,23,13,16.10
2010,05,18,23,14,19.30
2010,05,18,23,15,17.70
2010,05,18,23,16,12.90
2010,05,18,23,17,14.50
2010,05,18,23,18,11.30
2010,05,18,23,19,11.30
2010,05,18,23,20,11.30
2010,05,18,23,21,11.30
2010,05,18,23,22,9.60
2010,05,18,23,23,11.30
2010,05,18,23,24,9.60
2010,05,18,23,25,9.60
2010,05,18,23,26,14.50
2010,05,18,23,27,17.70
2010,05,18,23,28,17.70
2010,05,18,23,29,16.10
2010,05,18,23,30,14.50
2010,05,18,23,31,14.50
2010,05,18,23,32,16.10
2010,05,18,23,33,17.70
2010,05,18,23,34,16.10
2010,05,18,23,35,11.30
2010,05,18,23,36,9.60
2010,05,18,23,37,14.50
2010,05,18,23,38,8.10
2010,05,18,23,39,11.30
2010,05,18,23,40,9.60
2010,05,18,23,41,9.60
2010,05,18,23,42,9.60
2010,05,18,23,43,8.10
2010,05,18,23,44,6.40
2010,05,18,23,45,6.40
2010,05,18,23,46,9.60
2010,05,18,23,47,8.10
2010,05,18,23,48,8.10
2010,05,18,23,49,8.10
2010,05,18,23,50,9.60
2010,05,18,23,51,11.30
2010,05,18,23,52,9.60
2010,05,18,23,53,8.10
2010,05,18,23,54,8.10
2010,05,18,23,55,6.40
2010,05,18,23,56,8.10
2010,05,18,23,57,8.10
2010,05,18,23,58,9.60
2010,05,18,23,59,11.30
